User: anonymous   Login
Location: Unspecified
(0.0000°N, 0.0000°E)
Time: 09:10:19
(UTC+00:00)
Language:

COSMOS 2454 - Orbit

View from above orbital plane
View from above orbital plane
View from above satellite
View from above satellite

Ground track
Ground track

The orbit data is extracted from the following two-line orbital elements,

1 35635U 09039A   18109.84723431  .00000056  00000-0  32482-4 0  9998
2 35635  82.9543 126.1969 0020015 140.8150 219.4472 13.89625876443641
Epoch (UTC): 19 April 2018 20:20:01
Eccentricity: 0.0020015
inclination: 82.9543°
perigee height: 915 km
apogee height: 944 km
right ascension of ascending node: 126.1969°
argument of perigee: 140.8150°
revolutions per day: 13.89625876
mean anomaly at epoch: 219.4472°
orbit number at epoch: 44364

The dashed part of the orbit path shows where the satellite is in the earth's shadow,  

DLR